Weather History for KRIV - March, 2013

Change the Weather History Date:

Saturday, March 23, 2013

  Actual Average Record
Temperature  
Mean Temperature 56 °F -  
Max Temperature 77 °F 69 °F 83 °F (2008)
Min Temperature 37 °F 44 °F 29 °F (2009)
Degree Days  
Heating Degree Days 8    
Growing Degree Days 6 (Base 50)    
Moisture  
Dew Point 47 °F    
Average Humidity 87    
Maximum Humidity 100    
Minimum Humidity 37    
Precipitation  
Precipitation 0.00 in - - ()
Sea Level Pressure  
Sea Level Pressure 29.97 in    
Wind  
Wind Speed 2 mph (WSW)    
Max Wind Speed 13 mph    
Max Gust Speed -    
Visibility 6 miles    
Events Fog    
Averages and records for this station are not official NWS values.
T = Trace of Precipitation, MM = Missing Value Source: NWS Daily Summary

Daily Weather History Graph

Daily Weather History Graph

Search for Another Location

Airport or City:

Trip Planner

Search our weather history database for the weather conditions in past years. The results will help you decide how hot, cold, wet, or windy it might be!

Date:

Astronomy

Mar. 23, 2013 Rise Set
Actual Time 6:48 AM PDT 7:03 PM PDT
Civil Twilight 6:23 AM PDT 7:28 PM PDT
Nautical Twilight 5:54 AM PDT 7:57 PM PDT
Astronomical Twilight 5:24 AM PDT 8:26 PM PDT
Moon 3:42 PM PDT (3/23) 4:17 AM PDT (3/23)
Length of Visible Light 13h 04m
Length of Day
12h 15m
Waxing Gibbous, 86% of the Moon is Illuminated
Mar 23
Waxing Gibbous
Mar 27
Full
Apr 2
Last Quarter
Apr 10
New
Apr 18
First Quarter

Hourly Weather History & Observations

Time (PDT) Temp. Dew Point Humidity Pressure Visibility Wind Dir Wind Speed Gust Speed Precip Events Conditions
12:58 AM 45.1 °F 45.0 °F 99% 29.91 in 10.0 mi Calm Calm - N/A   Clear
1:58 AM 43.5 °F 43.5 °F 100% 29.92 in 10.0 mi Calm Calm - N/A   Clear
2:55 AM 41.7 °F 41.7 °F 100% 29.91 in 10.0 mi Calm Calm - N/A   Clear
3:55 AM 41.2 °F 41.2 °F 100% 29.91 in 8.0 mi Calm Calm - N/A   Clear
4:55 AM 39.9 °F 39.9 °F 100% 29.93 in 7.0 mi Calm Calm - N/A   Clear
5:51 AM 39.2 °F 39.2 °F 100% 29.94 in 5.0 mi Calm Calm - N/A   Partly Cloudy
5:55 AM 38.7 °F 38.7 °F 100% 29.94 in 5.0 mi Calm Calm - N/A   Partly Cloudy
6:45 AM 37.4 °F 37.4 °F 100% 29.95 in 2.5 mi Calm Calm - N/A   Partly Cloudy
6:55 AM 38.8 °F 38.8 °F 100% 29.96 in 2.2 mi Calm Calm - N/A   Partly Cloudy
7:27 AM 41.0 °F 41.0 °F 100% 29.96 in 2.0 mi Calm Calm - N/A   Mostly Cloudy
7:40 AM 39.2 °F 39.2 °F 100% 29.96 in 0.8 mi Calm Calm - N/A   Overcast
7:46 AM 41.0 °F 41.0 °F 100% 29.96 in 0.2 mi Calm Calm - N/A Fog Fog
7:52 AM 42.8 °F 42.8 °F 100% 29.96 in 0.2 mi SE 1.2 mph - N/A Fog Fog
7:55 AM 46.2 °F 46.2 °F 100% 29.97 in 0.2 mi Calm Calm - N/A Fog Fog
8:03 AM 46.4 °F 46.4 °F 100% 29.98 in 0.2 mi SW 1.2 mph - N/A Fog Fog
8:23 AM 46.4 °F 46.4 °F 100% 29.98 in 0.2 mi SW 2.3 mph - N/A Fog Fog
8:34 AM 46.4 °F 46.4 °F 100% 29.99 in 0.5 mi SW 1.2 mph - N/A Fog Fog
8:38 AM 46.4 °F 46.4 °F 100% 29.99 in 0.8 mi SE 1.2 mph - N/A   Mostly Cloudy
8:47 AM 46.4 °F 46.4 °F 100% 29.99 in 1.0 mi East 1.2 mph - N/A   Mostly Cloudy
8:50 AM 48.2 °F 48.2 °F 100% 29.99 in 1.2 mi Calm Calm - N/A   Mostly Cloudy
8:53 AM 48.2 °F 48.2 °F 100% 29.99 in 1.5 mi Calm Calm - N/A   Mostly Cloudy
8:55 AM 48.2 °F 48.2 °F 100% - 1.6 mi ESE 1.2 mph - N/A   Mostly Cloudy
9:02 AM 48.2 °F 48.2 °F 100% 29.99 in 2.0 mi South 2.3 mph - N/A   Mostly Cloudy
9:10 AM 50.0 °F 50.0 °F 100% 30.00 in 2.5 mi South 1.2 mph - N/A   Mostly Cloudy
9:14 AM 51.8 °F 51.8 °F 100% 29.99 in 3.0 mi South 5.8 mph - N/A   Scattered Clouds
9:34 AM 51.8 °F 51.8 °F 100% 30.00 in 6.0 mi South 2.3 mph - N/A   Partly Cloudy
9:58 AM 54.9 °F 54.9 °F 100% 30.00 in 10.0 mi SW 3.5 mph - N/A   Clear
10:58 AM 64.0 °F 55.8 °F 74% 29.99 in 10.0 mi NNW 4.6 mph - N/A   Clear
11:58 AM 71.2 °F 53.6 °F 54% 29.97 in 10.0 mi Variable 1.2 mph - N/A   Clear
12:58 PM 75.0 °F 50.4 °F 42% 29.96 in 10.0 mi NNW 6.9 mph - N/A   Clear
1:58 PM 76.1 °F 47.7 °F 37% 29.96 in 10.0 mi NW 5.8 mph - N/A   Scattered Clouds
2:58 PM 76.1 °F 48.0 °F 37% 29.95 in 10.0 mi West 6.9 mph - N/A   Scattered Clouds
4:55 PM 75.9 °F 48.7 °F 38% 29.92 in 10.0 mi WNW 10.4 mph - N/A   Scattered Clouds
5:55 PM 71.8 °F 52.9 °F 51% 29.93 in 10.0 mi WNW 12.7 mph - N/A   Partly Cloudy
6:55 PM 66.0 °F 52.7 °F 62% 29.95 in 10.0 mi WNW 12.7 mph - N/A   Mostly Cloudy
7:55 PM 62.1 °F 51.6 °F 69% 29.96 in 10.0 mi WNW 5.8 mph - N/A   Mostly Cloudy
7:58 PM 62.1 °F 51.6 °F 69% 29.96 in 10.0 mi NW 5.8 mph - N/A   Mostly Cloudy
8:55 PM 59.2 °F 51.4 °F 75% 29.99 in 10.0 mi NNW 6.9 mph - N/A   Mostly Cloudy
9:55 PM 55.8 °F 51.3 °F 85% 30.01 in 10.0 mi WNW 10.4 mph - N/A   Mostly Cloudy
10:58 PM 54.0 °F 50.5 °F 88% 30.01 in 10.0 mi West 5.8 mph - N/A   Clear
11:58 PM 51.6 °F 48.7 °F 90% 29.99 in 10.0 mi South 3.5 mph - N/A   Clear